Simultaneous Nadir Overpasses (SNOs) Predictions

Prediction of SNOs between GOES-14 and NPP Satellite Orbit:

Table of predicted SNOs for the next 14.0 days since TLE Epoch: 4/27/2024
Index Date Time (GOES-14) GOES-14 Lat,Lon NPP Lat,Lon Distance(km) Time Diff (sec)
1 04/27/2024 20:37:03 -0.17,-108.63 0.08,-107.66 110.49 80
2 04/29/2024 08:58:49 0.16,-108.62 1.13,-112.92 491.06 80
3 04/30/2024 08:37:24 0.17,-108.61 0.13,-108.39 25.53 80
4 05/02/2024 20:40:35 -0.17,-108.62 -0.28,-109.16 61.12 80
5 05/03/2024 20:24:29 -0.18,-108.63 0.73,-104.63 456.18 80
6 05/05/2024 08:46:16 0.16,-108.63 0.45,-109.89 144.67 80
7 05/06/2024 08:24:50 0.17,-108.62 -0.56,-105.36 372.12 80
8 05/07/2024 20:46:46 -0.15,-108.63 -0.61,-110.66 232.06 80
9 05/08/2024 20:30:40 -0.16,-108.63 0.41,-106.13 285.12 80
10 05/10/2024 08:52:26 0.14,-108.63 0.75,-111.40 315.17 80
